Location: ???????
(55.8860°N, 38.0932°E)
Time: 22:03:23
(UTC+00:00)

deb Kosmos-1371 - Visible Passes

Search period start: 19 September 2024 00:00
Search period end: 29 September 2024 00:00
Orbit: 694 x 705 km, 74.0° (Epoch: 18 September)

Date Brightness Start Highest point End Pass type
(mag) Time Alt. Az. Time Alt. Az. Time Alt. Az.
19 Sep ? 16:23:51 10° NNW 16:28:48 76° WSW 16:33:42 10° SSE visible
19 Sep ? 18:05:55 10° WNW 18:08:34 15° W 18:11:13 10° SW visible
20 Sep ? 17:07:20 10° NW 17:11:39 31° WSW 17:15:56 10° SSW visible
21 Sep ? 16:09:31 10° NNW 16:14:26 66° WSW 16:19:18 10° SSE visible
21 Sep ? 17:52:03 10° WNW 17:54:05 13° W 17:56:07 10° WSW visible
22 Sep ? 16:53:05 10° NW 16:57:12 27° WSW 17:01:17 10° SSW visible
23 Sep ? 15:55:10 10° NW 16:00:01 57° WSW 16:04:50 10° S visible
23 Sep ? 17:38:32 10° WNW 17:39:33 11° W 17:40:35 10° WSW visible
24 Sep ? 16:38:49 10° NW 16:42:42 24° W 16:46:34 10° SSW visible
26 Sep ? 16:24:34 10° NW 16:28:10 21° W 16:31:45 10° SW visible
28 Sep ? 16:10:19 10° NW 16:13:34 18° W 16:16:49 10° SW visible
